Location: Ku?niki
(51.4449°N, 17.8974°E)
Time: 02:45:16
(UTC+00:00)

Lacrosse 5 rocket - Pass Details

Date: 18 September 2020
Orbit: 461 x 635 km, 57.0° (Epoch: 22 October)

Event Time Altitude Azimuth Distance (km) Brightness Sun altitude
Rises 18:08:31 0° 259° (W) 2,744 6.0 -12.0°
Reaches altitude 10° 18:10:44 10° 264° (W) 1,880 5.2 -12.4°
Maximum altitude 18:14:56 53° 342° (NNW) 737 2.2 -13.0°
Drops below altitude 10° 18:19:22 10° 60° (ENE) 1,979 3.8 -13.7°
Enters shadow 18:19:33 - 60° (ENE) 2,047 3.8 -13.7°
